"startDT [UTC]","vpos","CH4 [ppm]","stdev(CH4) [ppm]","CO2 [ppm]","stdev(CO2) [ppm]","H2O [ppm]","stdev(H2O)","p_LGR [torr]","T_LGR [C]","mt1_LGR [us]","mt2_LGR [us]","T_ECpre [C]","T_EC1 [C]","T_EC2 [C]","p_inlet [hPa]","p_in [hPa]","p_out [hPa]","T_inlet [C]","RH_inlet [%]","dwpt_inlet [C]","T_vent [C]","RH_vent [%]","dwpt_vent [C]","flow_vent [l min-1]","flow_inlet [l min-1]","dwpt_sample [C]","T_room [C]"
2012-05-06 00:00:00,0.0,1.8926,0.0008,404.66,0.28,448.2,31.9,138.08,30.58,24.63,36.38,0.04,-272.73,-272.74,-61,570,-927,26.3,11.1,-6.4,26.3,11.7,-5.8,5.73,2.31,-20.3,29.0
2012-05-06 00:01:00,0.0,1.8929,0.0010,404.78,0.31,452.8,28.8,138.08,30.59,24.63,36.37,0.04,-272.74,-272.74,-60,571,-927,26.3,11.4,-6.0,26.3,12.0,-5.4,5.73,2.24,-20.3,29.1
2012-05-06 00:02:00,0.0,1.8931,0.0010,404.78,0.36,450.2,31.4,138.08,30.59,24.63,36.38,0.28,-270.57,-271.83,-60,571,-926,26.3,11.1,-6.4,26.3,11.6,-5.8,5.42,2.44,-25.1,28.9
2012-05-06 00:03:00,0.0,1.8934,0.0010,404.72,0.28,443.9,36.1,138.08,30.59,24.62,36.38,0.04,-272.74,-272.74,-60,571,-927,26.3,11.3,-6.2,26.3,11.8,-5.6,5.73,2.20,-20.3,29.0
2012-05-06 00:04:00,0.0,1.8926,0.0011,404.77,0.32,445.5,25.4,138.08,30.59,24.63,36.38,0.04,-272.74,-272.74,-60,571,-927,26.3,11.0,-6.5,26.3,11.6,-5.9,5.73,2.38,-20.3,28.9
2012-05-06 00:05:00,0.0,1.8928,0.0009,404.67,0.34,445.6,26.2,138.08,30.59,24.63,36.38,0.04,-272.74,-272.74,-60,571,-927,26.3,11.5,-6.0,26.3,12.0,-5.4,5.73,2.25,-20.3,29.0
2012-05-06 00:06:00,0.0,1.8927,0.0006,404.71,0.31,451.4,25.8,138.08,30.59,24.63,36.38,0.04,-272.74,-272.74,-60,571,-926,26.3,10.7,-6.8,26.3,11.3,-6.2,5.73,2.28,-20.4,29.1
2012-05-06 00:07:00,0.0,1.8929,0.0008,404.79,0.32,443.2,31.7,138.08,30.59,24.63,36.37,0.04,-272.74,-272.73,-60,571,-927,26.3,11.1,-6.4,26.2,11.6,-5.9,5.73,2.36,-20.4,29.0
2012-05-06 00:08:00,0.0,1.8928,0.0009,404.71,0.28,440.3,27.7,138.08,30.59,24.63,36.38,0.04,-272.74,-272.74,-61,571,-927,26.3,11.1,-6.4,26.2,11.6,-5.9,5.73,2.21,-20.4,29.0
2012-05-06 00:09:00,0.0,1.8931,0.0009,404.67,0.25,441.1,29.2,138.08,30.59,24.63,36.38,0.04,-272.74,-272.74,-60,571,-926,26.3,11.4,-6.0,26.2,12.0,-5.4,5.73,2.40,-20.4,29.0
2012-05-06 00:10:00,0.0,1.8934,0.0009,404.76,0.33,447.3,28.0,138.08,30.59,24.63,36.38,0.04,-272.74,-272.74,-60,571,-927,26.3,11.4,-6.0,26.2,12.0,-5.5,5.73,2.21,-20.4,29.0
2012-05-06 00:11:00,0.0,1.8929,0.0010,404.73,0.27,439.6,31.9,138.08,30.59,24.63,36.38,0.04,-272.74,-272.74,-60,571,-927,26.3,11.3,-6.2,26.2,11.8,-5.6,5.73,2.37,-20.4,28.9
2012-05-06 00:12:00,0.0,1.8932,0.0009,404.65,0.32,448.8,31.2,138.08,30.59,24.63,36.38,0.04,-272.74,-272.74,-60,571,-926,26.3,11.1,-6.4,26.2,11.7,-5.8,5.73,2.28,-20.4,28.9
2012-05-06 00:13:00,0.0,1.8929,0.0010,404.77,0.28,441.0,28.1,138.08,30.59,24.63,36.38,0.04,-272.73,-272.74,-60,570,-927,26.3,10.9,-6.7,26.2,11.4,-6.1,5.73,2.27,-20.4,28.9
2012-05-06 00:14:00,0.0,1.8930,0.0009,404.72,0.34,434.4,32.1,138.08,30.59,24.63,36.38,0.04,-272.74,-272.74,-60,571,-927,26.3,11.2,-6.3,26.2,11.8,-5.7,5.73,2.38,-20.4,28.9
2012-05-06 00:15:00,0.0,1.8930,0.0009,404.72,0.27,442.8,28.8,138.08,30.59,24.63,36.38,0.04,-272.74,-272.74,-60,570,-927,26.3,11.1,-6.4,26.2,11.6,-5.9,5.73,2.20,-20.4,28.9
2012-05-06 00:16:00,0.0,1.8930,0.0012,404.64,0.34,437.4,29.9,138.08,30.59,24.63,36.38,0.04,-272.74,-272.74,-60,570,-927,26.3,11.2,-6.3,26.2,11.8,-5.7,5.73,2.41,-20.4,28.8
2012-05-06 00:17:00,0.0,1.8930,0.0010,404.81,0.27,446.5,28.2,138.08,30.59,24.63,36.37,0.04,-272.73,-272.74,-60,570,-927,26.3,11.4,-6.1,26.2,12.0,-5.5,5.73,2.21,-20.4,28.8
2012-05-06 00:18:00,0.0,1.8928,0.0011,404.65,0.33,439.9,30.5,138.08,30.59,24.63,36.39,0.04,-272.74,-272.74,-60,571,-927,26.3,11.2,-6.3,26.2,11.9,-5.6,5.73,2.37,-20.4,28.7
2012-05-06 00:19:00,0.0,1.8933,0.0009,404.84,0.30,438.6,27.5,138.08,30.59,24.63,36.37,0.04,-272.74,-272.74,-60,570,-927,26.3,11.6,-5.9,26.2,12.2,-5.3,5.73,2.28,-20.4,28.8
2012-05-06 00:20:00,0.0,1.8934,0.0009,404.85,0.30,437.6,27.5,138.08,30.59,24.63,36.37,0.04,-272.74,-272.73,-60,571,-927,26.3,11.4,-6.1,26.2,12.0,-5.5,5.73,2.29,-20.5,28.8
2012-05-06 00:21:00,0.0,1.8928,0.0010,404.74,0.29,440.6,29.4,138.08,30.59,24.63,36.38,0.04,-272.74,-272.74,-60,570,-927,26.3,11.3,-6.2,26.2,12.0,-5.5,5.73,2.36,-20.5,28.8
2012-05-06 00:22:00,0.0,1.8932,0.0007,404.74,0.30,444.1,31.9,138.08,30.59,24.63,36.38,0.04,-272.74,-272.74,-60,570,-927,26.3,11.7,-5.7,26.2,12.4,-5.0,5.73,2.22,-20.5,28.8
2012-05-06 00:23:00,0.0,1.8930,0.0009,404.78,0.31,432.8,31.7,138.08,30.59,24.63,36.38,0.04,-272.74,-272.74,-59,570,-928,26.2,11.9,-5.6,26.2,12.5,-4.9,5.73,2.41,-20.5,28.7
2012-05-06 00:24:00,0.0,1.8928,0.0009,404.69,0.33,442.4,27.7,138.08,30.59,24.63,36.38,0.04,-272.73,-272.74,-59,570,-927,26.2,11.9,-5.5,26.1,12.6,-4.9,5.73,2.20,-20.5,28.7
2012-05-06 00:25:00,0.0,1.8931,0.0008,404.71,0.33,437.5,30.3,138.08,30.59,24.63,36.39,0.04,-272.74,-272.74,-60,570,-927,26.2,11.9,-5.6,26.1,12.5,-4.9,5.73,2.39,-20.5,28.7
2012-05-06 00:26:00,0.0,1.8929,0.0008,404.86,0.33,441.4,30.5,138.08,30.59,24.63,36.37,0.04,-272.74,-272.74,-59,571,-928,26.2,11.9,-5.6,26.1,12.5,-4.9,5.73,2.24,-20.5,28.8
2012-05-06 00:27:00,0.0,1.8926,0.0009,404.65,0.32,439.7,30.8,138.08,30.58,24.63,36.38,0.04,-272.74,-272.74,-60,570,-927,26.2,11.8,-5.6,26.1,12.5,-5.0,5.73,2.33,-20.5,28.7
2012-05-06 00:28:00,0.0,1.8928,0.0009,404.72,0.32,434.2,27.6,138.08,30.58,24.63,36.38,0.04,-272.74,-272.74,-61,570,-927,26.2,12.0,-5.4,26.1,12.7,-4.8,5.73,2.31,-20.5,28.8
2012-05-06 00:29:00,0.0,1.8927,0.0009,404.79,0.28,436.4,25.2,138.08,30.58,24.63,36.38,0.04,-272.74,-272.74,-61,570,-927,26.2,11.8,-5.6,26.1,12.4,-5.0,5.73,2.25,-20.5,28.7
2012-05-06 00:30:00,0.0,1.8931,0.0008,404.76,0.40,428.4,30.1,138.08,30.58,24.63,36.38,0.04,-272.73,-272.74,-60,570,-927,26.2,11.8,-5.7,26.1,12.4,-5.1,5.73,2.38,-20.5,28.8
2012-05-06 00:31:00,0.0,1.8928,0.0009,404.73,0.28,435.3,30.2,138.08,30.58,24.63,36.38,0.04,-272.74,-272.74,-60,570,-927,26.2,12.1,-5.4,26.1,12.7,-4.8,5.73,2.21,-20.5,28.8
2012-05-06 00:32:00,0.0,1.8931,0.0008,404.90,0.34,431.3,28.3,138.08,30.58,24.63,36.37,0.04,-272.74,-272.74,-60,570,-928,26.2,12.0,-5.4,26.1,12.6,-4.8,5.73,2.41,-20.5,28.8
2012-05-06 00:33:00,0.0,1.8931,0.0009,404.63,0.27,438.0,27.8,138.08,30.58,24.63,36.38,0.04,-272.74,-272.74,-60,570,-927,26.2,12.1,-5.4,26.1,12.7,-4.7,5.73,2.20,-20.5,28.8
2012-05-06 00:34:00,0.0,1.8932,0.0009,404.77,0.27,434.8,29.8,138.08,30.58,24.63,36.37,0.04,-272.74,-272.74,-60,570,-927,26.2,12.1,-5.4,26.1,12.7,-4.8,5.73,2.40,-20.5,28.8
2012-05-06 00:35:00,0.0,1.8929,0.0008,404.77,0.30,437.8,28.9,138.08,30.58,24.63,36.38,0.04,-272.74,-272.74,-60,570,-928,26.2,12.0,-5.5,26.1,12.6,-4.9,5.73,2.22,-20.6,28.8
2012-05-06 00:36:00,0.0,1.8926,0.0008,404.72,0.29,428.4,30.1,138.08,30.58,24.63,36.38,0.04,-272.74,-272.74,-60,570,-927,26.2,12.0,-5.5,26.1,12.6,-4.9,5.73,2.37,-20.6,28.7
2012-05-06 00:37:00,0.0,1.8932,0.0008,404.86,0.29,436.2,32.9,138.08,30.58,24.63,36.38,0.04,-272.74,-272.74,-60,570,-927,26.2,12.2,-5.3,26.1,12.8,-4.7,5.73,2.28,-20.6,28.7
2012-05-06 00:38:00,0.0,1.8927,0.0010,404.73,0.35,435.9,26.3,138.08,30.57,24.63,36.38,0.04,-272.74,-272.74,-60,570,-928,26.2,12.1,-5.4,26.1,12.6,-4.8,5.73,2.30,-20.6,28.8
2012-05-06 00:39:00,0.0,1.8932,0.0008,404.91,0.29,437.9,35.2,138.08,30.57,24.63,36.37,0.04,-272.74,-272.74,-59,570,-927,26.2,12.2,-5.3,26.1,12.8,-4.7,5.73,2.35,-20.6,28.7
2012-05-06 00:40:00,0.0,1.8927,0.0008,404.71,0.36,438.2,32.3,138.08,30.57,24.63,36.38,0.04,-272.74,-272.73,-60,570,-927,26.2,12.3,-5.1,26.1,12.9,-4.6,5.73,2.23,-20.6,28.7
2012-05-06 00:41:00,0.0,1.8933,0.0009,404.83,0.31,439.4,33.3,138.08,30.57,24.62,36.38,0.04,-272.74,-272.74,-59,570,-928,26.1,12.5,-4.9,26.1,13.1,-4.3,5.73,2.40,-20.6,28.8
2012-05-06 00:42:00,0.0,1.8929,0.0008,404.78,0.31,439.3,27.0,138.08,30.57,24.63,36.38,0.04,-272.74,-272.74,-60,570,-927,26.2,12.4,-5.1,26.1,13.0,-4.5,5.73,2.20,-20.6,28.7
2012-05-06 00:43:00,0.0,1.8924,0.0008,404.76,0.34,443.8,25.5,138.08,30.57,24.63,36.38,0.04,-272.73,-272.74,-59,570,-927,26.2,12.2,-5.2,26.1,12.9,-4.6,5.73,2.41,-20.5,28.8
2012-05-06 00:44:00,0.0,1.8928,0.0010,404.78,0.31,433.4,30.8,138.08,30.57,24.63,36.38,0.04,-272.73,-272.74,-60,570,-928,26.2,12.3,-5.1,26.1,13.0,-4.5,5.73,2.20,-20.6,28.8
2012-05-06 00:45:00,0.0,1.8928,0.0010,404.75,0.35,432.3,32.2,138.08,30.57,24.63,36.38,0.04,-272.74,-272.74,-59,570,-927,26.1,12.3,-5.1,26.1,12.9,-4.5,5.73,2.39,-20.6,28.8
2012-05-06 00:46:00,0.0,1.8931,0.0009,404.81,0.33,433.6,29.6,138.08,30.57,24.63,36.38,0.04,-272.74,-272.74,-60,570,-927,26.2,12.0,-5.5,26.1,12.6,-4.9,5.73,2.24,-20.5,28.8
2012-05-06 00:47:00,0.0,1.8931,0.0009,404.87,0.32,439.3,34.4,138.08,30.57,24.63,36.37,0.04,-272.74,-272.74,-59,570,-927,26.2,11.4,-6.1,26.1,12.0,-5.5,5.73,2.33,-20.6,28.7
2012-05-06 00:48:00,0.0,1.8930,0.0009,404.82,0.28,438.4,31.5,138.08,30.57,24.63,36.38,0.04,-272.74,-272.74,-60,570,-927,26.2,11.8,-5.7,26.1,12.3,-5.2,5.73,2.32,-20.5,28.7
2012-05-06 00:49:00,0.0,1.8932,0.0009,404.88,0.33,441.3,32.4,138.08,30.57,24.63,36.38,0.04,-272.74,-272.74,-59,570,-927,26.2,11.9,-5.6,26.1,12.4,-5.1,5.73,2.26,-20.5,28.7
2012-05-06 00:50:00,0.0,1.8934,0.0008,404.88,0.32,428.3,31.5,138.08,30.57,24.63,36.38,0.04,-272.74,-272.74,-60,570,-927,26.1,11.8,-5.7,26.1,12.4,-5.1,5.73,2.37,-20.6,28.8
2012-05-06 00:51:00,0.0,1.8929,0.0009,404.87,0.30,439.6,34.6,138.08,30.57,24.63,36.38,0.04,-272.74,-272.73,-59,570,-927,26.1,11.7,-5.8,26.1,12.3,-5.2,5.73,2.22,-20.6,28.8
2012-05-06 00:52:00,0.0,1.8931,0.0009,404.87,0.32,433.1,31.1,138.08,30.57,24.63,36.38,0.04,-272.74,-272.74,-60,570,-927,26.1,11.7,-5.8,26.1,12.3,-5.2,5.73,2.41,-20.6,28.7
2012-05-06 00:53:00,0.0,1.8931,0.0008,404.84,0.27,435.4,35.4,138.08,30.57,24.63,36.38,0.04,-272.74,-272.74,-59,570,-927,26.1,11.8,-5.7,26.1,12.4,-5.2,5.73,2.20,-20.6,28.8
2012-05-06 00:54:00,0.0,1.8931,0.0010,404.85,0.32,432.3,34.4,138.08,30.57,24.63,36.38,0.04,-272.73,-272.74,-60,570,-927,26.1,11.9,-5.6,26.1,12.5,-5.0,5.73,2.40,-20.5,28.7
2012-05-06 00:55:00,0.0,1.8932,0.0009,404.89,0.28,436.5,38.5,138.08,30.57,24.63,36.38,0.04,-272.74,-272.74,-59,570,-927,26.1,12.0,-5.5,26.1,12.6,-5.0,5.73,2.23,-20.6,28.7
2012-05-06 00:56:00,0.0,1.8933,0.0009,404.87,0.34,449.7,28.1,138.08,30.57,24.63,36.38,0.04,-272.74,-272.74,-60,570,-927,26.1,11.9,-5.6,26.1,12.5,-5.0,5.73,2.36,-20.6,28.7
2012-05-06 00:57:00,0.0,1.8933,0.0008,404.97,0.35,442.4,29.3,138.08,30.57,24.63,36.37,0.04,-272.73,-272.73,-60,570,-927,26.1,11.5,-6.0,26.1,12.1,-5.4,5.73,2.28,-20.6,28.7
2012-05-06 00:58:00,0.0,1.8931,0.0007,404.94,0.33,424.1,32.6,138.08,30.57,24.63,36.37,0.04,-272.74,-272.74,-60,570,-927,26.1,11.4,-6.2,26.1,12.0,-5.6,5.73,2.30,-20.6,28.7
2012-05-06 00:59:00,0.0,1.8930,0.0009,404.99,0.27,427.1,28.0,138.08,30.57,24.63,36.37,0.04,-272.74,-272.74,-59,570,-927,26.1,11.8,-5.8,26.1,12.3,-5.2,5.73,2.35,-20.6,28.8
2012-05-06 01:00:00,0.0,1.8934,0.0011,404.88,0.28,428.2,28.9,138.08,30.57,24.63,36.38,0.04,-272.74,-272.74,-60,570,-927,26.1,11.6,-5.9,26.1,12.2,-5.3,5.73,2.23,-20.6,28.8
2012-05-06 01:01:00,0.0,1.8930,0.0008,404.93,0.30,442.7,33.7,138.08,30.57,24.63,36.38,0.04,-272.74,-272.74,-59,570,-927,26.1,11.8,-5.8,26.1,12.4,-5.2,5.73,2.40,-20.6,28.8
2012-05-06 01:02:00,0.0,1.8930,0.0007,404.95,0.35,434.1,32.5,138.08,30.57,24.63,36.38,0.04,-272.74,-272.74,-60,570,-926,26.1,11.8,-5.7,26.1,12.4,-5.1,5.73,2.20,-20.6,28.8
2012-05-06 01:03:00,0.0,1.8934,0.0010,404.94,0.28,437.0,32.7,138.08,30.57,24.63,36.38,0.04,-272.74,-272.74,-60,570,-927,26.1,11.8,-5.7,26.1,12.4,-5.1,5.73,2.40,-20.6,28.8
2012-05-06 01:04:00,0.0,1.8933,0.0008,404.88,0.28,431.3,28.7,138.08,30.56,24.63,36.38,0.04,-272.74,-272.74,-60,570,-927,26.1,11.4,-6.1,26.1,12.0,-5.6,5.73,2.22,-20.6,28.8
2012-05-06 01:05:00,0.0,1.8929,0.0008,404.92,0.33,430.0,28.2,138.08,30.56,24.63,36.38,0.04,-272.74,-272.74,-60,570,-926,26.1,11.6,-6.0,26.1,12.2,-5.4,5.73,2.35,-20.6,28.8
2012-05-06 01:06:00,0.0,1.8932,0.0008,404.90,0.28,437.5,32.2,138.08,30.56,24.63,36.38,0.04,-272.74,-272.74,-60,570,-926,26.1,11.7,-5.9,26.1,12.3,-5.3,5.73,2.29,-20.6,28.8
2012-05-06 01:07:00,0.0,1.8930,0.0009,404.97,0.36,430.7,35.5,138.08,30.56,24.63,36.38,0.04,-272.74,-272.74,-60,570,-927,26.1,12.0,-5.5,26.1,12.6,-4.9,5.73,2.28,-20.6,28.8
2012-05-06 01:08:00,0.0,1.8930,0.0008,405.00,0.34,435.7,27.9,138.08,30.56,24.63,36.37,0.04,-272.74,-272.74,-61,570,-926,26.1,11.9,-5.6,26.1,12.5,-5.0,5.73,2.36,-20.6,28.8
2012-05-06 01:09:00,0.0,1.8933,0.0010,404.95,0.27,432.7,30.5,138.08,30.56,24.63,36.37,0.04,-272.74,-272.74,-60,570,-926,26.1,11.7,-5.9,26.1,12.3,-5.3,5.73,2.22,-20.6,28.7
2012-05-06 01:10:00,0.0,1.8931,0.0009,405.08,0.32,437.3,28.9,138.08,30.55,24.63,36.37,0.04,-272.74,-272.74,-61,570,-927,26.1,11.6,-6.0,26.1,12.1,-5.4,5.73,2.40,-20.6,28.7
2012-05-06 01:11:00,0.0,1.8931,0.0008,404.85,0.29,441.7,29.6,138.08,30.55,24.63,36.38,0.04,-272.74,-272.74,-60,569,-927,26.1,11.8,-5.7,26.1,12.4,-5.2,5.73,2.20,-20.6,28.7
2012-05-06 01:12:00,0.0,1.8927,0.0010,404.99,0.29,442.8,33.4,138.08,30.55,24.63,36.38,0.04,-272.74,-272.74,-61,569,-926,26.1,12.2,-5.4,26.1,12.7,-4.8,5.73,2.39,-20.6,28.7
2012-05-06 01:13:00,0.0,1.8933,0.0009,405.05,0.31,439.8,27.8,138.08,30.55,24.63,36.38,0.04,-272.74,-272.74,-60,569,-927,26.1,11.6,-6.0,26.0,12.2,-5.4,5.73,2.23,-20.6,28.7
2012-05-06 01:14:00,0.0,1.8934,0.0008,404.97,0.27,431.4,29.8,138.08,30.55,24.63,36.38,0.04,-272.74,-272.74,-62,570,-927,26.1,11.7,-5.9,26.0,12.3,-5.3,5.73,2.34,-20.6,28.7
2012-05-06 01:15:00,0.0,1.8930,0.0011,405.06,0.34,434.1,31.9,138.08,30.55,24.63,36.37,0.04,-272.74,-272.74,-61,569,-926,26.1,11.4,-6.2,26.0,12.0,-5.6,5.73,2.30,-20.6,28.7
2012-05-06 01:16:00,0.0,1.8929,0.0008,405.13,0.25,440.5,29.8,138.08,30.55,24.63,36.37,0.04,-272.74,-272.74,-61,570,-926,26.1,11.5,-6.1,26.0,12.1,-5.5,5.73,2.27,-20.6,28.7
2012-05-06 01:17:00,0.0,1.8933,0.0009,404.94,0.32,430.6,30.6,138.08,30.55,24.62,36.38,0.04,-272.74,-272.74,-61,570,-927,26.1,11.6,-6.0,26.0,12.2,-5.4,5.73,2.37,-20.6,28.7
2012-05-06 01:18:00,0.0,1.8939,0.0009,404.99,0.28,445.1,29.3,138.08,30.55,24.62,36.38,0.04,-272.74,-272.74,-61,570,-927,26.1,11.5,-6.1,26.0,12.1,-5.5,5.73,2.21,-20.6,28.7
2012-05-06 01:19:00,0.0,1.8933,0.0010,404.93,0.33,439.7,32.2,138.08,30.55,24.63,36.38,0.04,-272.74,-272.74,-60,570,-926,26.1,11.8,-5.8,26.0,12.4,-5.2,5.73,2.41,-20.6,28.7
2012-05-06 01:20:00,0.0,1.8933,0.0008,405.14,0.31,433.4,34.0,138.08,30.55,24.63,36.37,0.04,-272.74,-272.74,-60,570,-927,26.1,11.7,-5.9,26.0,12.3,-5.3,5.73,2.20,-20.6,28.7
2012-05-06 01:21:00,0.0,1.8936,0.0008,405.07,0.31,430.1,32.5,138.08,30.55,24.63,36.38,0.04,-272.74,-272.74,-59,570,-927,26.1,11.9,-5.7,26.0,12.5,-5.1,5.73,2.40,-20.6,28.7
2012-05-06 01:22:00,0.0,1.8931,0.0009,405.07,0.27,439.5,33.8,138.08,30.55,24.63,36.38,0.04,-272.74,-272.74,-60,570,-926,26.1,11.9,-5.7,26.0,12.5,-5.1,5.73,2.23,-20.6,28.8
2012-05-06 01:23:00,0.0,1.8935,0.0009,405.06,0.34,431.7,32.6,138.08,30.55,24.63,36.38,0.04,-272.74,-272.74,-60,569,-927,26.1,11.8,-5.8,26.0,12.4,-5.2,5.73,2.35,-20.6,28.7
2012-05-06 01:24:00,0.0,1.8935,0.0009,405.07,0.31,442.2,29.0,138.08,30.54,24.63,36.38,0.04,-272.73,-272.74,-60,570,-927,26.0,11.9,-5.6,26.0,12.5,-5.0,5.73,2.29,-20.6,28.6
2012-05-06 01:25:00,0.0,1.8933,0.0009,405.23,0.30,437.2,30.5,138.08,30.54,24.63,36.37,0.04,-272.74,-272.74,-59,570,-927,26.1,11.9,-5.6,26.0,12.5,-5.1,5.73,2.28,-20.7,28.7
2012-05-06 01:26:00,0.0,1.8932,0.0009,405.10,0.26,424.8,33.4,138.08,30.54,24.63,36.38,0.04,-272.74,-272.74,-60,570,-926,26.1,12.1,-5.5,26.0,12.7,-4.9,5.73,2.35,-20.6,28.6
2012-05-06 01:27:00,0.0,1.8931,0.0008,405.19,0.32,433.5,34.3,138.08,30.53,24.63,36.37,0.04,-272.74,-272.74,-59,570,-927,26.1,11.7,-5.9,26.0,12.3,-5.3,5.73,2.24,-20.7,28.7
2012-05-06 01:28:00,0.0,1.8930,0.0010,405.03,0.31,438.3,36.2,138.08,30.53,24.63,36.38,0.04,-272.74,-272.74,-60,569,-927,26.1,12.0,-5.5,26.0,12.6,-5.0,5.73,2.39,-20.7,28.6
2012-05-06 01:29:00,0.0,1.8935,0.0008,405.14,0.28,431.6,34.5,138.08,30.53,24.63,36.37,0.04,-272.74,-272.74,-59,570,-926,26.1,12.3,-5.2,26.0,12.9,-4.6,5.73,2.20,-20.7,28.6
2012-05-06 01:30:00,0.0,1.8933,0.0012,405.17,0.30,435.3,27.7,138.08,30.53,24.63,36.37,0.04,-272.74,-272.74,-60,569,-927,26.0,12.3,-5.3,26.0,12.9,-4.7,5.73,2.41,-20.7,28.6
2012-05-06 01:31:00,0.0,1.8934,0.0008,405.21,0.29,433.0,34.1,138.08,30.53,24.63,36.37,0.04,-272.73,-272.74,-59,569,-927,26.1,12.0,-5.5,26.0,12.6,-4.9,5.73,2.20,-20.7,28.7
2012-05-06 01:32:00,0.0,1.8934,0.0010,405.19,0.35,435.5,30.5,138.08,30.53,24.63,36.37,0.04,-272.74,-272.74,-60,569,-927,26.0,12.1,-5.5,26.0,12.7,-4.9,5.73,2.40,-20.7,28.6
2012-05-06 01:33:00,0.0,1.8936,0.0008,405.14,0.30,430.4,28.0,138.08,30.53,24.63,36.37,0.04,-272.74,-272.74,-59,570,-927,26.0,12.1,-5.5,26.0,12.7,-4.9,5.73,2.23,-20.7,28.6
2012-05-06 01:34:00,0.0,1.8935,0.0008,405.18,0.35,423.4,33.2,138.08,30.53,24.62,36.37,0.04,-272.74,-272.74,-60,569,-927,26.0,12.1,-5.5,26.0,12.6,-4.9,5.73,2.36,-20.7,28.7
2012-05-06 01:35:00,0.0,1.8936,0.0009,405.27,0.32,428.5,35.1,138.08,30.52,24.63,36.37,0.04,-272.74,-272.74,-59,570,-927,26.0,12.4,-5.1,26.0,13.0,-4.5,5.73,2.28,-20.7,28.7
2012-05-06 01:36:00,0.0,1.8938,0.0010,405.10,0.29,428.5,30.2,138.08,30.52,24.63,36.38,0.04,-272.74,-272.74,-60,569,-927,26.0,12.5,-5.1,26.0,13.1,-4.5,5.73,2.31,-20.7,28.8
2012-05-06 01:37:00,0.0,1.8936,0.0010,405.14,0.36,428.6,35.3,138.08,30.52,24.63,36.38,0.04,-272.74,-272.74,-59,570,-927,26.0,12.3,-5.3,26.0,12.9,-4.7,5.73,2.34,-20.7,28.8
2012-05-06 01:38:00,0.0,1.8936,0.0010,405.22,0.36,430.9,32.5,138.08,30.52,24.63,36.37,0.04,-272.74,-272.73,-60,569,-927,26.0,12.4,-5.2,26.0,13.0,-4.6,5.73,2.26,-20.7,28.8
2012-05-06 01:39:00,0.0,1.8940,0.0009,405.24,0.29,434.6,32.6,138.08,30.52,24.62,36.37,0.04,-272.74,-272.74,-60,570,-927,26.0,12.5,-5.1,26.0,13.1,-4.5,5.73,2.37,-20.7,28.7
2012-05-06 01:40:00,0.0,1.8937,0.0009,405.23,0.28,434.7,29.8,138.08,30.51,24.63,36.38,0.04,-272.74,-272.74,-60,569,-927,26.0,12.3,-5.3,25.9,12.9,-4.7,5.73,2.23,-20.7,28.7
2012-05-06 01:41:00,0.0,1.8937,0.0009,405.25,0.30,429.0,27.9,138.08,30.51,24.63,36.37,0.04,-272.74,-272.74,-59,569,-927,26.0,12.5,-5.0,25.9,13.1,-4.5,5.73,2.40,-20.7,28.6
2012-05-06 01:42:00,0.0,1.8940,0.0008,405.22,0.31,423.8,26.3,138.08,30.51,24.63,36.37,0.04,-272.74,-272.74,-60,569,-927,26.0,12.4,-5.1,25.9,13.1,-4.5,5.73,2.20,-20.7,28.6
2012-05-06 01:43:00,0.0,1.8936,0.0008,405.20,0.33,435.8,29.4,138.08,30.51,24.63,36.38,0.04,-272.74,-272.74,-60,570,-927,26.0,12.7,-4.9,25.9,13.3,-4.3,5.73,2.42,-20.7,28.6
2012-05-06 01:44:00,0.0,1.8934,0.0010,405.20,0.33,437.2,27.9,138.08,30.51,24.63,36.38,0.04,-272.74,-272.74,-59,569,-927,26.0,12.5,-5.1,25.9,13.1,-4.5,5.73,2.21,-20.7,28.6
2012-05-06 01:45:00,0.0,1.8936,0.0009,405.40,0.37,429.4,35.5,138.08,30.51,24.63,36.36,0.04,-272.74,-272.74,-60,570,-927,26.0,12.6,-5.0,26.0,13.2,-4.4,5.73,2.41,-20.7,28.7
2012-05-06 01:46:00,0.0,1.8937,0.0008,405.26,0.30,430.1,29.0,138.08,30.51,24.63,36.37,0.04,-272.74,-272.74,-59,569,-927,26.0,12.5,-5.1,25.9,13.1,-4.5,5.73,2.22,-20.7,28.7
2012-05-06 01:47:00,0.0,1.8938,0.0008,405.21,0.31,433.0,30.8,138.08,30.51,24.62,36.38,0.04,-272.74,-272.74,-60,569,-927,26.0,12.3,-5.3,25.9,12.9,-4.7,5.73,2.38,-20.7,28.7
2012-05-06 01:48:00,0.0,1.8934,0.0008,405.28,0.34,439.9,33.1,138.08,30.50,24.63,36.37,0.04,-272.73,-272.74,-59,569,-927,26.0,12.4,-5.2,26.0,13.0,-4.6,5.73,2.26,-20.7,28.7
2012-05-06 01:49:00,0.0,1.8936,0.0009,405.33,0.28,434.0,35.3,138.08,30.50,24.63,36.38,0.04,-272.74,-272.74,-60,569,-927,26.0,12.6,-5.0,25.9,13.2,-4.4,5.73,2.34,-20.7,28.7
2012-05-06 01:50:00,0.0,1.8936,0.0009,405.24,0.28,435.6,31.3,138.09,30.50,24.63,36.38,0.04,-272.73,-272.74,-59,569,-928,26.0,12.7,-4.9,25.9,13.3,-4.3,5.73,2.30,-20.7,28.7
2012-05-06 01:51:00,0.0,1.8935,0.0008,405.29,0.34,437.8,29.0,138.08,30.50,24.63,36.38,0.04,-272.73,-272.74,-60,569,-927,26.0,12.5,-5.1,25.9,13.1,-4.5,5.73,2.28,-20.7,28.7
2012-05-06 01:52:00,0.0,1.8929,0.0009,405.28,0.36,433.2,29.1,138.08,30.50,24.63,36.38,0.04,-272.74,-272.74,-59,570,-927,26.0,12.6,-5.0,25.9,13.2,-4.4,5.73,2.36,-20.7,28.7
2012-05-06 01:53:00,0.0,1.8936,0.0010,405.30,0.30,430.9,31.4,138.08,30.50,24.63,36.37,0.04,-272.74,-272.74,-60,569,-928,26.0,12.6,-5.0,25.9,13.2,-4.4,5.73,2.24,-20.7,28.6
2012-05-06 01:54:00,0.0,1.8940,0.0008,405.45,0.34,432.9,27.7,138.08,30.50,24.62,36.36,0.04,-272.74,-272.74,-59,569,-927,26.0,12.9,-4.7,25.9,13.5,-4.1,5.73,2.39,-20.7,28.7
2012-05-06 01:55:00,0.0,1.8941,0.0009,405.43,0.30,426.1,25.5,138.08,30.50,24.62,36.37,0.04,-272.74,-272.74,-60,569,-927,26.0,13.1,-4.5,25.9,13.7,-3.9,5.73,2.22,-20.7,28.6
2012-05-06 01:56:00,0.0,1.8939,0.0008,405.37,0.28,433.5,32.7,138.08,30.49,24.63,36.38,0.04,-272.74,-272.74,-59,569,-928,26.0,13.0,-4.5,25.9,13.7,-3.9,5.73,2.41,-20.7,28.6
2012-05-06 01:57:00,0.0,1.8938,0.0008,405.38,0.33,434.2,27.1,138.08,30.49,24.63,36.38,0.04,-272.74,-272.74,-60,569,-927,26.0,13.0,-4.5,25.9,13.6,-4.0,5.73,2.20,-20.7,28.6
2012-05-06 01:58:00,0.0,1.8936,0.0010,405.42,0.29,435.6,30.3,138.08,30.49,24.63,36.37,0.04,-272.74,-272.74,-59,569,-927,26.0,13.2,-4.4,25.9,13.8,-3.8,5.73,2.41,-20.7,28.6
2012-05-06 01:59:00,0.0,1.8936,0.0009,405.36,0.31,419.8,31.7,138.08,30.49,24.63,36.37,0.04,-272.74,-272.74,-60,569,-928,26.0,13.0,-4.6,25.9,13.6,-4.0,5.73,2.21,-20.7,28.6
2012-05-06 02:00:00,1.0,1.8817,0.0087,388.03,12.29,463.6,37.0,138.08,30.49,24.63,36.38,0.04,-272.74,-272.74,-59,500,-928,26.0,13.2,-4.4,25.9,13.8,-3.8,5.73,2.36,-20.7,28.6
2012-05-06 02:01:00,1.0,1.8716,0.0008,373.92,0.30,472.1,34.1,138.08,30.49,24.63,36.39,0.04,-272.74,-272.74,-59,499,-927,26.0,13.3,-4.3,26.0,13.9,-3.6,5.73,2.24,-20.6,28.6
2012-05-06 02:02:00,1.0,1.8715,0.0009,373.72,0.30,480.5,28.7,138.08,30.49,24.63,36.39,0.04,-272.74,-272.74,-59,499,-928,26.0,13.3,-4.2,25.9,14.0,-3.6,5.73,2.35,-20.6,28.6
2012-05-06 02:03:00,1.0,1.8716,0.0008,373.85,0.26,476.7,32.1,138.08,30.49,24.63,36.38,0.04,-272.74,-272.74,-59,499,-927,26.0,13.3,-4.3,26.0,13.9,-3.7,5.73,2.29,-20.6,28.7
2012-05-06 02:04:00,1.0,1.8715,0.0009,373.71,0.27,484.7,31.6,138.08,30.49,24.63,36.39,0.04,-272.74,-272.74,-59,499,-927,26.0,13.5,-4.1,26.0,14.1,-3.5,5.73,2.30,-20.5,28.7
2012-05-06 02:05:00,0.0,1.8842,0.0082,391.43,12.28,451.8,36.7,138.08,30.49,24.63,36.39,0.04,-272.74,-272.74,-59,569,-928,26.0,13.5,-4.1,26.0,14.2,-3.4,5.73,2.37,-20.5,28.7
2012-05-06 02:06:00,0.0,1.8939,0.0009,405.38,0.30,442.7,34.0,138.08,30.49,24.63,36.38,0.04,-272.74,-272.74,-59,570,-927,26.0,13.6,-3.9,26.0,14.2,-3.3,5.73,2.27,-20.6,28.7
2012-05-06 02:07:00,0.0,1.8941,0.0008,405.34,0.33,430.1,28.4,138.08,30.49,24.62,36.38,0.04,-272.74,-272.74,-59,569,-927,26.0,13.6,-3.9,26.0,14.3,-3.3,5.73,2.37,-20.6,28.7
2012-05-06 02:08:00,0.0,1.8937,0.0008,405.29,0.30,443.1,28.1,138.08,30.49,24.63,36.38,0.04,-272.74,-272.73,-59,570,-927,26.1,13.4,-4.1,26.0,14.1,-3.5,5.73,2.23,-20.6,28.8
2012-05-06 02:09:00,0.0,1.8942,0.0008,405.53,0.27,436.1,28.4,138.08,30.49,24.63,36.37,0.04,-272.74,-272.74,-59,569,-928,26.1,13.3,-4.2,26.0,14.0,-3.6,5.73,2.41,-20.5,28.8
2012-05-06 02:10:00,0.0,1.8940,0.0009,405.34,0.32,438.6,31.0,138.08,30.49,24.63,36.38,0.04,-272.74,-272.74,-59,570,-927,26.1,13.3,-4.2,26.0,13.9,-3.6,5.73,2.20,-20.5,28.8
2012-05-06 02:11:00,0.0,1.8937,0.0010,405.39,0.28,450.0,27.1,138.08,30.49,24.63,36.38,0.04,-272.74,-272.74,-59,570,-927,26.1,13.5,-4.0,26.0,14.1,-3.4,5.73,2.41,-20.5,28.8
2012-05-06 02:12:00,0.0,1.8940,0.0010,405.52,0.33,446.2,36.7,138.08,30.49,24.62,36.37,0.04,-272.74,-272.74,-59,570,-928,26.1,13.3,-4.2,26.0,14.0,-3.6,5.73,2.22,-20.6,28.8
2012-05-06 02:13:00,0.0,1.8939,0.0008,405.51,0.32,435.8,30.0,138.08,30.49,24.63,36.37,0.04,-272.74,-272.74,-59,569,-927,26.1,13.5,-4.0,26.0,14.1,-3.4,5.73,2.38,-20.6,28.8
2012-05-06 02:14:00,0.0,1.8941,0.0010,405.43,0.34,433.2,33.9,138.08,30.49,24.63,36.37,0.04,-272.74,-272.74,-59,570,-927,26.1,13.7,-3.8,26.0,14.3,-3.3,5.73,2.26,-20.6,28.7
2012-05-06 02:15:00,0.0,1.8936,0.0009,405.55,0.32,442.4,32.7,138.08,30.49,24.63,36.37,0.04,-272.73,-272.74,-59,570,-927,26.1,13.8,-3.6,26.0,14.5,-3.1,5.73,2.33,-20.6,28.7
2012-05-06 02:16:00,0.0,1.8944,0.0009,405.55,0.29,433.0,29.0,138.08,30.50,24.62,36.38,0.04,-272.74,-272.74,-59,570,-928,26.1,13.9,-3.6,26.0,14.5,-3.0,5.73,2.32,-20.3,28.8